sat.trackr.live / text

‹ back to catalog

STARLINK-4719

NORAD 53774 · 2022-111B

PAYLOAD ACTIVE UNKNOWN

§ Identity

Operator
Country
US
Launch date
2022-09-11
Launch site
AFETR
Launch vehicle
Mass (kg)
RCS (m²)

Purposes: comms

External: N2YO · Heavens-Above · Gunter

§ Orbital elements

Epoch: 2026-05-25T04:07:24.475584Z

Period
95.44 min
Inclination
53.2160°
Eccentricity
0.0001272
Mean motion
15.08841483 rev/d
Perigee alt
538.9 km
Apogee alt
540.6 km
Semi-major
6,917.9 km
B*
2.6873e-5
RAAN
300.6613°
Arg perigee
88.8036°
Mean anomaly
271.3102°
Rev number
20,525

§ Raw data

STARLINK-47191 53774U 22111B   26145.17181106  .00000140  00000+0  26873-4 0  99902 53774  53.2160 300.6613 0001272  88.8036 271.3102 15.08841483205251

JSON: /api/v1/satellites/53774 · /tle

For live sub-satellite position, see the globe view (requires WebGL).

§ Visibility from observer

Set your observer location to see the next 7 days of passes ≥ 10°. The values pass through the URL so the page stays shareable.

No JS? Fill the form by hand. The geolocation button needs JavaScript.